Theta_e
313 313 313 312 312 312 312 312 313 314 315 316 316 316 317 317 316 316 316 316 315 317 318 318 317 318 317 316 317 317 317 317 317 317 316 316 315 316 316 316 316 316 317 317 317 316 315 317 318 318 318 317 317 316 316 316 315 317 319 318 317 318 318 317 317 316 316 316 316 316 313 312 313 313 311 311 313 312 312 313 313 313 313 313 313 313 312 312
316 316 315 314 313 312 312 312 313 313 314 316 316 316 317 317 317 317 317 317 317 319 320 319 318 318 318 316 317 317 317 317 317 317 316 315 315 316 316 316 316 317 317 317 317 316 315 316 316 317 317 317 316 316 316 316 315 318 319 318 318 318 316 316 316 315 315 315 316 316 313 311 312 312 311 311 314 314 313 315 315 314 314 314 313 312 312 312
317 318 317 316 315 314 313 312 313 313 314 315 316 317 317 318 318 317 318 318 319 321 320 320 318 318 318 316 317 317 317 317 316 316 315 315 316 316 316 316 316 317 317 317 317 316 315 314 315 315 316 317 316 316 317 316 316 317 317 319 318 317 316 314 314 315 314 314 314 315 313 312 311 310 310 311 313 314 315 315 315 314 313 314 314 313 313 313
317 318 318 318 316 314 313 313 313 313 314 316 316 317 317 318 318 318 318 318 320 321 321 320 319 318 318 317 317 317 317 317 316 315 315 315 315 316 316 316 317 317 317 317 317 316 315 315 315 315 316 318 317 315 316 315 315 316 316 318 317 314 315 314 313 314 313 312 313 313 313 312 312 309 310 311 313 315 315 314 313 312 312 313 314 314 313 313
317 318 318 318 317 314 314 313 313 313 314 316 317 317 317 318 319 318 318 319 320 321 321 320 319 318 318 318 318 317 317 317 316 315 315 315 316 316 316 317 317 317 317 317 316 316 316 315 315 316 316 318 317 317 315 313 313 315 316 317 315 313 314 314 313 312 312 311 311 312 312 311 311 310 311 311 312 314 314 313 312 312 312 312 313 313 312 312
317 318 318 318 317 315 314 314 314 314 315 316 317 318 318 318 319 318 319 319 320 321 321 319 318 318 318 317 317 317 317 316 315 315 316 316 317 317 317 317 316 315 315 315 316 316 316 316 316 317 316 317 316 316 315 312 311 315 316 315 314 313 313 313 311 311 311 310 311 312 311 310 311 312 311 310 312 313 313 312 312 312 312 312 312 310 310 310
317 318 318 318 317 315 315 315 314 314 315 317 318 318 318 319 318 318 319 320 321 320 320 319 318 318 317 317 317 317 317 316 315 316 317 317 317 317 317 316 313 313 313 314 315 316 316 316 316 315 316 317 315 314 314 311 310 314 316 314 312 312 312 312 311 310 309 309 311 311 310 310 312 312 310 310 312 312 311 312 312 312 311 311 310 309 309 308
317 318 318 318 317 316 315 315 314 314 316 318 318 318 319 319 318 318 320 321 321 321 320 319 318 318 317 317 317 317 316 316 317 317 317 317 317 317 316 313 312 312 313 314 314 315 316 316 316 315 316 317 314 314 313 312 312 313 315 314 312 311 311 311 309 309 309 309 310 309 310 312 311 310 310 312 312 311 311 312 311 311 310 310 309 308 307 305
317 317 318 318 318 317 315 315 314 315 317 319 319 319 319 319 318 319 320 322 321 321 321 319 318 317 317 317 317 318 317 316 317 317 317 317 317 315 313 312 312 312 313 314 314 315 315 315 315 314 315 315 313 313 312 313 314 313 313 313 312 312 311 310 309 309 308 308 310 310 312 313 309 309 311 311 311 311 312 311 310 310 309 308 307 306 304 303
317 317 318 319 319 318 316 315 314 315 318 320 320 319 320 320 318 319 321 321 322 322 321 319 317 317 317 317 318 318 316 316 316 316 317 316 315 313 313 312 312 312 313 314 314 314 314 314 314 313 314 314 312 312 311 313 314 311 311 311 311 312 311 310 310 310 309 308 310 311 312 312 309 310 312 311 311 312 312 310 309 309 307 306 305 303 303 303
317 317 318 319 319 319 316 315 315 316 319 321 321 320 320 320 319 320 321 321 321 322 322 319 317 317 317 317 318 317 315 315 315 316 316 315 313 313 313 312 312 313 314 314 314 314 314 313 313 313 314 313 312 312 311 311 312 309 309 310 311 312 311 310 311 310 310 309 309 310 311 311 309 310 313 311 311 312 312 310 308 307 305 304 303 303 302 302
318 318 318 319 320 320 317 315 315 316 319 321 321 321 321 320 320 321 321 320 322 322 322 319 317 317 317 316 316 316 314 314 314 315 315 314 313 314 313 312 312 313 313 314 314 314 314 313 312 313 313 313 313 313 311 310 309 308 308 310 312 313 312 310 311 311 311 310 308 308 310 311 311 312 312 311 311 312 311 309 306 305 304 303 303 302 302 301
318 318 319 319 320 320 318 316 315 317 320 322 322 321 322 321 321 321 320 320 322 323 321 318 317 317 317 316 315 314 314 314 314 314 314 314 314 314 313 312 312 313 313 314 314 314 313 313 312 312 312 312 313 312 310 309 308 309 308 310 313 313 313 312 311 311 311 309 308 309 311 312 313 312 312 311 311 311 310 308 305 304 303 303 302 302 302 301
319 319 319 320 320 320 319 317 316 317 320 322 322 322 322 321 321 322 320 320 323 323 321 318 317 317 316 316 315 315 315 314 314 314 313 313 313 313 312 312 312 313 313 314 314 314 313 313 312 312 312 311 312 310 310 310 309 311 310 311 314 313 313 314 311 311 311 309 309 311 312 312 313 313 312 311 311 311 309 306 304 303 302 302 301 301 301 301
318 319 319 320 320 320 319 318 317 317 319 321 322 322 322 322 322 322 320 320 323 323 320 317 317 317 316 316 316 315 315 315 315 314 313 312 312 312 312 311 312 312 313 313 314 313 313 313 312 312 312 311 311 311 312 312 311 311 311 313 315 313 313 314 311 310 310 309 310 311 312 312 312 312 312 311 311 309 307 304 303 302 301 301 301 301 300 300
317 319 320 320 321 320 319 318 317 317 318 320 322 322 322 322 322 322 320 321 323 322 319 317 316 316 317 316 316 315 315 315 315 314 313 312 311 312 311 311 312 311 312 313 313 313 312 312 312 311 311 311 311 313 314 314 313 313 313 313 315 313 313 313 310 309 310 310 310 311 311 312 312 312 312 311 310 307 305 303 302 301 301 301 300 300 300 299
317 319 320 320 321 320 320 318 318 318 318 319 320 321 322 321 321 321 320 321 323 321 319 317 316 316 316 316 315 315 315 315 315 313 312 311 311 312 311 311 311 311 312 313 313 313 312 312 312 311 311 311 311 313 313 312 314 314 313 313 314 312 312 312 311 309 309 309 310 310 311 311 311 311 312 310 308 305 304 302 301 301 300 300 300 299 299 299
318 318 319 320 321 321 320 319 318 318 318 319 319 321 321 320 321 320 320 321 322 321 319 317 317 317 316 316 315 315 315 315 315 313 312 311 311 311 311 311 311 311 312 312 313 312 311 311 312 313 313 312 312 313 313 312 313 313 313 313 313 312 311 312 312 310 309 308 309 310 311 311 310 311 311 309 306 304 303 302 301 300 300 300 299 299 299 298
318 318 319 321 321 322 321 320 320 319 319 319 319 321 321 320 320 319 319 322 320 320 320 318 317 318 317 316 315 315 315 315 315 312 311 311 310 311 311 311 310 311 312 313 314 311 310 312 312 313 313 311 310 311 312 312 312 311 311 311 311 312 312 311 311 310 308 307 309 310 310 310 310 309 309 307 305 304 302 301 301 300 300 299 299 299 298 298
319 319 319 321 322 322 322 322 321 320 320 319 320 321 318 316 318 317 318 320 318 317 318 317 316 316 316 315 314 315 315 315 314 311 311 310 310 311 311 311 310 311 312 313 314 311 309 311 312 312 311 310 309 309 309 309 308 309 310 311 312 312 312 311 310 309 307 307 308 309 309 309 309 308 308 306 305 303 302 301 300 300 299 299 299 298 298 298
319 319 320 322 322 323 323 322 322 320 319 318 319 318 311 309 314 314 314 318 318 317 316 316 316 315 316 315 313 314 314 315 313 311 310 311 310 311 311 311 311 312 312 309 311 311 309 310 312 312 310 307 307 307 306 307 307 309 310 311 312 312 312 310 309 309 307 306 307 308 308 308 308 307 307 306 304 302 301 300 299 299 299 299 299 298 298 298
320 319 321 322 322 323 323 322 322 319 317 318 318 313 307 306 309 310 312 316 318 318 316 316 315 314 315 315 313 313 313 313 312 311 311 310 311 311 311 311 311 311 311 309 311 311 310 310 310 309 307 305 305 305 305 307 309 310 311 311 312 312 311 310 309 308 306 306 306 307 307 308 307 307 306 305 303 301 300 300 299 299 298 298 298 298 298 298
320 321 322 323 323 323 322 322 321 318 318 318 314 309 306 306 306 308 313 316 317 317 315 316 315 314 314 314 313 312 312 312 311 310 310 310 310 310 310 310 311 311 311 310 310 309 308 308 307 306 305 305 306 306 306 308 310 311 311 311 311 311 310 310 309 307 306 306 306 307 307 306 307 307 305 304 303 302 301 300 299 299 298 298 298 298 298 297
321 322 323 323 323 322 321 321 318 317 318 314 310 307 305 305 306 310 314 315 315 315 314 315 315 314 314 314 312 312 312 311 309 309 309 309 309 309 310 309 309 311 310 308 308 307 307 307 305 305 306 307 308 309 309 309 310 312 310 310 310 309 308 308 307 306 306 306 306 305 305 305 306 307 305 304 303 302 301 300 299 298 298 298 298 298 297 297
322 323 324 324 322 320 320 320 316 317 316 311 309 307 304 304 307 312 313 314 316 315 313 315 315 314 314 313 313 311 311 310 308 308 308 308 308 308 309 307 307 310 309 307 307 307 308 306 304 307 308 309 310 309 310 310 309 311 309 307 308 307 307 306 306 306 306 306 306 304 303 304 305 307 306 304 302 301 300 299 299 298 298 298 297 297 297 297
322 323 324 324 322 320 319 317 316 317 314 310 309 306 304 305 309 313 313 315 318 316 315 316 315 314 313 314 312 310 312 311 307 308 308 308 308 308 308 307 306 308 308 307 307 306 307 304 305 309 309 310 310 309 309 309 309 310 308 305 306 306 306 306 306 305 305 306 307 305 302 303 305 307 306 303 300 299 299 299 298 298 297 297 297 297 297 296
323 323 324 323 321 319 318 315 315 315 311 309 307 304 303 306 310 314 314 318 320 316 315 315 314 315 314 313 312 310 314 312 308 308 307 307 308 307 307 307 306 306 306 306 306 307 306 306 307 309 308 308 309 309 308 307 308 309 307 305 306 306 305 305 306 305 305 305 306 305 304 303 305 307 305 302 300 299 298 297 298 298 297 297 297 296 296 296
323 323 323 322 320 319 318 315 314 312 309 308 305 303 304 307 311 314 317 322 319 314 315 314 313 314 313 313 311 310 312 310 309 310 307 307 307 306 307 306 306 306 304 305 306 307 306 307 308 307 307 307 308 308 306 306 309 308 305 304 305 304 304 306 305 304 305 304 303 305 305 305 306 307 304 302 300 298 297 296 297 297 297 296 296 296 295 295
322 323 322 321 319 318 316 314 313 310 308 305 303 303 306 309 312 314 318 322 318 314 314 313 314 313 313 313 311 310 310 309 310 309 307 307 306 306 306 305 304 305 304 304 307 308 306 305 305 305 307 307 307 304 304 305 306 304 303 303 305 305 305 306 305 304 304 303 303 304 305 304 304 304 302 301 299 297 296 296 297 297 297 296 296 295 295 294
322 322 321 320 319 317 316 314 310 308 306 303 303 305 308 311 314 317 322 321 317 315 312 313 315 313 312 313 311 309 308 309 309 307 306 306 305 306 305 304 304 306 305 304 306 306 304 303 304 305 306 306 304 302 302 303 302 301 303 304 304 304 303 303 303 303 302 303 304 303 302 300 299 301 301 300 298 296 296 296 296 297 296 296 295 294 294 294
321 321 321 320 318 316 315 311 307 306 304 302 304 307 310 314 316 320 324 319 317 316 313 313 314 312 312 313 313 311 308 308 306 306 307 306 306 306 305 306 306 306 307 306 306 306 305 305 305 305 304 304 305 304 303 303 302 302 303 303 302 302 302 301 301 301 301 303 304 301 299 297 297 300 299 297 296 296 296 296 296 296 296 295 294 294 294 294
320 320 321 320 317 314 312 309 306 305 302 302 306 310 314 317 318 321 322 318 318 318 315 314 313 313 312 310 313 312 309 308 306 305 306 305 306 306 305 307 306 307 309 308 308 308 307 306 304 304 303 303 306 307 306 304 303 303 303 302 301 301 300 300 301 300 301 303 302 299 298 297 297 299 299 297 296 296 296 296 296 296 295 294 294 294 294 293
319 319 320 319 316 313 310 307 305 303 302 302 307 312 316 318 320 321 320 320 320 316 314 314 312 312 311 311 313 310 307 308 306 304 303 303 305 305 303 303 304 306 307 307 308 308 308 306 303 305 305 302 304 307 306 304 301 302 302 301 299 298 298 299 300 299 300 301 299 297 297 297 298 301 300 297 296 296 296 296 296 295 295 294 294 294 293 293
317 317 319 318 315 313 311 307 303 301 301 303 307 313 317 318 320 319 319 321 317 311 311 312 310 310 311 312 311 307 308 309 305 303 303 303 305 305 305 303 302 304 305 306 308 307 308 308 304 305 305 302 302 303 303 302 300 301 302 300 299 298 298 298 299 298 298 299 299 298 298 298 299 301 299 297 296 296 296 296 295 295 294 294 294 293 293 293
317 317 317 317 315 314 312 308 304 301 301 303 307 313 317 319 318 316 317 317 315 312 310 310 310 312 312 311 307 305 308 308 304 303 304 304 305 306 306 305 303 304 305 307 307 305 306 307 304 302 301 299 299 300 300 300 300 299 299 300 300 300 299 299 298 298 297 297 298 298 299 299 299 299 298 296 296 296 296 296 295 294 294 293 293 293 293 292
319 318 318 318 316 315 312 307 303 301 301 305 309 311 315 317 317 317 316 313 313 315 313 311 312 313 312 310 307 304 305 305 303 304 304 304 305 305 305 304 303 304 306 307 307 305 305 306 303 300 299 297 296 298 299 299 300 299 298 299 299 298 298 297 298 298 296 296 298 298 298 299 298 298 296 295 296 296 295 295 294 294 293 293 293 293 292 292
321 320 320 320 317 315 311 306 303 301 302 305 308 310 314 314 314 317 316 311 310 312 312 314 314 314 314 312 309 306 304 304 303 304 305 305 305 305 303 302 301 302 303 304 305 305 304 305 304 302 301 297 295 297 297 296 298 298 297 298 298 296 296 295 295 296 296 296 297 297 297 297 297 297 296 295 295 295 294 294 294 293 293 293 293 292 292 292
324 323 322 321 319 317 313 308 303 302 304 307 308 310 313 312 309 311 312 310 310 311 311 313 314 313 313 312 310 306 305 306 306 304 305 306 305 305 303 302 301 299 299 300 302 303 302 303 304 301 300 298 296 298 298 296 295 297 297 297 296 295 295 295 294 294 295 295 296 297 297 296 296 297 296 295 294 294 294 293 293 293 293 293 292 292 292 291
324 323 322 323 321 318 316 309 302 302 305 306 306 308 311 311 308 307 308 310 310 311 311 312 314 312 310 310 309 306 305 306 306 304 306 307 305 304 303 302 301 298 297 299 302 302 301 301 302 300 298 297 297 298 298 297 295 295 296 296 296 295 294 294 294 294 294 294 295 295 295 296 296 295 294 294 294 294 293 292 292 293 293 292 292 292 291 291
323 320 318 320 320 315 311 306 303 306 308 307 306 308 310 310 308 306 308 310 310 311 312 312 312 312 310 309 308 307 305 305 304 304 306 306 306 304 302 301 300 297 296 297 299 300 300 300 301 300 297 297 298 298 298 297 296 295 296 295 295 295 294 294 293 293 293 293 294 294 294 296 296 295 294 294 294 293 293 292 292 293 292 292 292 291 291 291
321 316 313 316 318 314 307 305 307 309 312 311 308 310 310 309 309 308 307 308 309 310 311 311 311 311 310 310 308 306 305 304 303 304 305 304 305 305 301 299 299 297 297 297 297 298 299 300 301 300 298 298 298 296 296 296 296 296 296 296 295 294 293 293 293 293 292 293 293 292 293 294 295 294 294 294 294 293 293 293 292 292 292 292 291 291 291 291
318 314 313 316 317 314 308 308 309 310 312 312 308 309 310 309 311 311 308 307 308 309 309 309 310 310 310 310 309 306 306 305 303 304 304 304 305 303 299 298 297 297 297 297 297 297 297 298 299 299 298 297 295 293 294 295 296 295 295 295 295 294 293 293 293 293 292 292 292 292 292 294 294 294 294 294 294 293 293 293 292 292 292 291 291 291 291 291
315 314 315 316 314 310 308 309 310 310 312 312 308 309 310 310 311 312 310 308 309 309 309 308 308 309 309 309 309 306 305 307 306 305 304 303 302 299 296 296 296 296 296 296 295 296 296 296 296 298 297 293 291 292 293 294 294 294 294 294 294 294 294 293 292 292 292 292 292 292 293 294 294 294 294 294 294 293 293 292 292 292 291 291 291 291 291 291
314 313 312 313 311 308 309 311 311 312 312 310 309 309 309 309 311 311 310 310 309 308 309 309 308 309 308 306 307 306 306 308 308 306 304 302 299 295 294 295 296 295 295 295 295 296 297 297 296 296 296 294 292 294 293 293 293 294 294 294 294 293 293 293 293 293 293 293 293 292 293 294 294 295 294 294 293 293 293 292 292 291 291 291 291 291 291 291
314 312 309 309 310 308 310 312 311 313 313 311 310 311 309 309 309 310 311 311 309 308 309 309 307 307 306 304 305 305 305 307 308 305 303 300 297 294 293 294 294 294 294 294 295 296 296 296 296 296 296 296 295 296 295 294 293 293 293 293 293 293 293 292 292 292 293 293 292 292 293 293 294 294 293 293 292 292 292 292 291 291 291 291 291 291 291 290
313 313 309 306 308 309 310 310 309 310 312 312 311 312 311 310 309 308 309 310 309 308 307 306 304 304 304 303 305 304 303 304 305 303 301 299 296 294 293 293 293 293 294 294 295 296 296 295 295 295 296 296 296 295 294 293 292 293 293 293 293 293 293 293 292 292 292 292 292 293 292 292 293 293 292 292 292 291 291 291 291 291 291 291 291 290 290 289
312 313 310 307 309 310 309 309 308 308 310 311 312 312 311 312 310 308 307 308 308 307 306 304 303 305 305 304 305 305 303 303 302 301 301 299 296 295 293 294 294 293 294 295 295 295 295 294 294 295 295 295 295 294 293 292 292 292 293 293 293 293 293 293 292 292 292 292 292 292 292 292 292 292 292 292 291 291 291 291 291 291 291 291 290 289 289 289
313 312 311 311 314 313 310 309 308 308 309 309 310 311 311 311 311 309 307 306 305 305 306 305 303 305 306 305 306 305 303 303 302 301 301 299 296 295 294 294 293 293 295 295 294 294 294 294 294 294 295 294 294 293 293 293 292 292 292 293 293 293 293 293 292 292 292 291 292 292 292 292 292 292 292 291 291 291 291 291 291 291 291 290 289 289 288 288
312 311 309 310 314 314 311 310 308 308 308 308 308 309 309 310 310 309 307 305 303 303 306 308 306 304 305 305 305 305 303 304 304 302 300 299 297 296 296 295 293 294 295 294 293 293 293 293 293 293 293 293 293 293 293 293 292 293 292 292 293 293 293 293 292 292 292 292 292 291 291 291 291 292 292 291 291 291 291 291 291 291 291 289 288 288 288 287
312 312 310 308 309 309 309 309 309 308 309 308 309 309 309 309 310 309 306 306 307 304 303 307 307 304 303 304 304 305 304 305 306 303 300 299 298 296 297 296 295 295 294 293 293 293 293 294 293 293 294 294 293 293 293 293 293 293 292 292 292 292 292 292 292 292 292 291 291 291 291 291 292 292 292 291 291 291 291 291 291 290 289 288 288 288 286 285
315 315 313 310 309 308 307 308 309 309 311 310 309 310 309 308 309 309 307 306 308 307 303 304 307 304 302 302 303 304 304 303 303 301 299 299 299 298 297 297 296 295 294 293 293 293 293 293 293 293 294 294 293 292 292 292 292 292 291 292 292 292 292 292 292 291 291 291 291 291 291 291 291 292 292 291 291 291 291 291 290 289 288 288 288 286 285 284
315 315 314 313 313 312 310 308 309 310 312 312 310 310 310 310 309 309 309 307 306 306 304 304 305 304 302 302 302 302 302 300 299 298 297 297 297 296 296 295 296 296 295 294 293 293 294 293 292 292 293 293 292 291 291 291 291 291 292 292 292 292 292 292 291 291 291 291 290 290 291 291 291 291 291 290 291 291 291 290 289 288 288 288 287 285 283 282
Wind_Speed
13 14 14 15 15 15 16 17 19 20 21 21 22 22 23 24 24 24 24 25 27 30 33 32 27 20 12 3 3 5 6 5 4 3 4 7 7 7 8 11 12 12 12 11 10 9 6 4 4 6 8 6 5 5 3 4 4 1 2 2 0 1 1 2 1 2 4 8 10 9 5 8 8 7 12 17 13 11 14 16 15 15 15 19 23 27 28 28
14 15 15 16 16 16 16 16 17 19 20 20 21 21 22 23 23 23 23 24 26 29 32 31 28 21 12 5 3 5 5 3 2 5 9 8 6 7 10 12 13 13 13 13 11 10 8 7 7 8 9 5 3 4 1 4 4 1 1 2 1 2 2 1 1 2 3 8 16 16 8 8 8 6 11 11 12 13 11 10 12 17 22 25 27 32 34 31
14 15 16 16 17 16 16 16 16 18 19 19 20 21 22 22 22 22 22 23 25 29 32 31 28 20 12 5 1 5 5 2 4 8 9 7 7 8 11 13 14 14 14 14 13 12 10 10 10 9 9 4 2 3 1 3 3 0 2 2 2 2 0 1 1 1 3 8 15 16 11 10 7 5 7 8 14 13 8 11 15 18 24 30 30 33 37 35
13 15 16 17 17 17 16 16 16 17 18 18 19 20 21 22 21 22 22 23 25 28 32 31 27 19 11 6 1 5 7 3 6 9 8 7 8 9 11 13 14 14 14 13 11 11 10 10 10 10 8 2 2 2 1 4 2 1 2 2 4 2 1 2 1 2 2 6 12 16 13 10 8 7 6 7 10 8 10 16 17 18 23 28 29 29 33 33
13 15 16 17 17 17 17 16 16 17 17 17 18 20 21 22 21 22 22 23 24 28 31 30 25 16 9 6 3 4 7 2 5 7 6 7 9 10 11 12 13 12 11 11 11 10 10 10 9 9 6 1 1 1 1 3 3 2 3 2 2 2 1 3 2 2 3 7 12 15 11 8 11 8 5 5 6 7 13 17 18 22 24 25 25 25 27 28
13 15 16 17 18 17 17 17 17 17 17 16 17 19 21 21 22 22 22 22 24 28 31 28 21 12 7 6 5 5 6 2 3 5 6 8 9 10 11 11 11 11 11 11 11 10 9 9 7 5 3 1 1 1 1 2 3 2 2 2 2 4 2 1 1 3 6 8 10 12 9 9 11 6 5 7 8 9 13 15 19 23 23 20 20 22 23 23
14 15 16 17 17 17 18 17 17 16 16 16 17 18 20 21 22 22 22 22 24 28 30 27 18 8 5 7 8 7 7 6 4 5 7 8 8 10 10 10 11 12 12 11 10 9 8 9 6 3 2 1 0 1 3 4 3 3 2 1 1 4 2 2 3 7 9 9 11 12 12 12 9 5 7 9 7 7 11 17 22 21 18 15 15 18 20 22
14 14 16 17 17 18 18 17 16 16 16 16 17 19 20 20 21 22 22 22 24 27 30 26 15 5 2 6 8 9 10 8 6 7 8 8 8 8 8 10 12 12 12 10 9 9 8 8 7 4 2 0 0 1 4 5 4 4 3 3 2 2 2 4 5 8 7 8 10 10 14 11 4 5 7 5 7 9 14 20 19 16 14 14 15 19 21 24
14 15 16 16 17 18 18 17 16 15 16 17 18 19 20 20 20 21 22 23 25 28 29 25 13 4 2 1 2 5 8 8 8 8 7 7 6 7 9 11 12 12 12 11 10 10 9 8 7 5 2 1 2 2 2 4 1 3 5 6 9 6 4 5 4 4 4 4 4 4 13 9 5 5 3 5 11 14 19 18 16 15 16 17 20 23 25 29
14 15 16 17 17 18 19 18 16 16 17 17 18 19 20 20 20 20 21 23 26 28 29 23 11 3 2 3 1 3 6 9 10 9 7 6 6 8 11 12 13 13 12 11 12 12 10 8 7 5 3 2 2 3 3 3 2 3 8 11 13 11 6 3 4 3 3 3 4 3 15 11 6 5 3 9 13 21 21 16 18 18 20 22 24 26 28 31
14 15 16 17 17 18 19 18 16 16 17 18 19 19 20 20 19 19 21 24 27 29 29 21 7 3 3 4 8 7 7 11 10 8 6 4 5 7 10 13 13 13 12 11 12 12 10 8 7 5 1 2 3 3 4 3 4 5 8 11 14 9 3 5 5 3 3 5 5 5 14 11 5 1 6 11 17 23 19 16 20 21 21 23 23 26 29 30
14 15 16 17 17 18 19 18 17 17 18 19 18 19 19 19 19 19 21 23 27 31 27 17 4 4 6 9 14 11 11 12 9 8 6 3 2 5 9 13 14 13 12 11 12 13 10 8 7 4 2 4 4 2 3 4 5 4 4 7 11 7 5 8 5 4 2 4 3 5 8 6 2 2 7 13 18 19 13 17 19 19 20 21 22 24 26 29
15 15 16 17 17 18 18 18 17 17 19 19 19 19 19 18 19 19 20 23 28 30 25 15 2 3 4 9 13 13 13 12 11 9 6 4 3 4 8 12 13 12 11 10 11 12 11 7 6 3 4 4 3 4 6 6 4 3 1 2 7 7 2 6 7 6 2 6 4 3 5 4 3 3 6 11 17 13 11 18 17 18 19 20 21 22 23 27
15 15 16 17 18 18 18 18 17 18 19 20 20 19 19 18 18 20 20 22 28 29 23 14 2 4 4 8 10 10 10 10 10 8 7 7 5 5 8 11 12 12 10 9 10 12 11 7 5 3 4 6 5 6 7 3 1 2 1 2 2 4 5 4 8 7 4 5 8 8 5 5 8 6 6 11 15 8 14 18 16 18 18 19 20 21 22 24
14 15 16 16 18 18 17 18 17 18 19 20 20 19 21 18 18 20 18 21 29 28 21 11 2 5 7 9 8 6 5 5 6 7 9 9 7 5 8 11 11 11 9 8 9 12 12 6 4 2 3 7 7 5 5 2 1 1 1 2 3 3 9 9 6 8 8 5 8 7 3 6 9 8 11 15 9 11 18 18 16 17 17 18 19 20 21 22
14 14 15 16 18 17 18 18 18 19 19 21 21 20 22 18 19 19 15 21 29 25 16 8 3 5 6 5 4 4 3 2 4 7 9 9 8 6 8 10 10 11 9 7 9 12 13 6 2 2 3 6 5 4 5 3 1 2 3 5 5 5 9 9 3 8 10 9 4 3 3 6 9 10 17 16 10 21 20 16 16 16 16 17 17 19 20 22
14 14 15 17 17 17 19 18 19 19 19 22 21 22 22 19 21 16 12 22 27 22 11 6 5 2 3 2 4 1 3 4 2 6 8 9 9 7 8 10 10 11 8 4 8 11 12 6 0 1 3 2 3 4 6 5 3 3 4 5 6 7 8 9 2 5 11 10 5 2 1 6 10 12 19 11 17 23 18 16 15 15 16 16 17 19 21 23
14 14 14 16 17 18 19 18 20 19 20 22 21 24 22 19 21 12 12 25 27 19 7 4 8 1 2 2 1 1 3 5 1 5 8 9 9 7 8 10 8 11 7 2 7 12 12 4 2 2 0 2 5 5 5 5 6 6 6 6 7 6 7 10 9 6 12 11 9 6 1 5 11 13 16 12 23 22 18 15 14 15 16 16 17 18 20 23
14 14 14 16 17 18 18 19 20 21 22 22 21 25 22 22 21 8 16 30 21 12 4 7 10 3 1 2 2 1 4 5 1 4 9 9 10 7 8 11 8 11 9 3 7 11 10 4 2 2 2 5 7 4 3 5 6 7 8 6 8 9 7 10 11 8 13 14 10 7 7 8 10 13 12 17 23 20 17 14 14 15 15 16 16 17 18 20
14 14 13 15 16 17 18 19 20 22 23 23 25 25 21 24 17 6 24 32 16 10 8 9 8 6 3 1 3 1 4 5 2 5 9 9 11 7 8 12 9 10 8 3 6 7 7 4 1 2 4 7 6 3 4 5 4 6 7 6 8 10 7 8 11 6 12 14 9 10 13 9 10 15 10 20 19 18 16 14 14 14 13 13 13 14 16 17
14 13 13 14 16 17 17 18 20 21 22 23 26 23 17 17 9 7 23 25 19 18 10 5 5 4 2 2 4 1 4 5 4 6 9 9 11 6 6 10 6 6 5 2 5 3 4 3 0 1 2 4 4 2 3 4 4 5 6 7 8 8 9 11 9 4 11 11 10 16 17 8 10 13 11 18 15 15 14 14 14 13 12 12 13 13 14 15
13 13 13 13 15 16 16 18 19 19 20 21 23 20 15 14 9 10 13 13 19 16 4 3 3 2 3 3 4 2 3 3 4 5 9 7 9 7 5 6 3 3 4 3 4 3 4 2 2 2 2 1 0 1 2 4 5 5 5 6 7 6 10 9 2 4 11 8 11 17 14 9 9 6 14 15 14 14 12 13 12 13 15 15 15 14 15 18
13 12 13 13 14 15 15 17 18 17 19 20 20 18 15 14 13 15 11 8 13 8 0 2 4 2 1 2 4 4 0 1 2 6 10 7 8 8 4 3 2 1 1 2 2 2 5 2 3 2 2 2 1 1 2 4 4 3 4 5 6 7 9 5 1 9 12 7 8 14 12 8 2 8 13 12 13 12 8 10 11 13 15 15 14 14 17 20
12 12 12 12 13 13 14 16 16 16 19 19 17 16 15 15 15 15 11 5 6 4 1 3 4 3 0 0 4 4 0 1 3 7 10 10 8 6 4 3 1 1 1 1 2 3 6 3 3 3 3 1 3 2 1 4 4 1 2 3 5 7 7 7 10 16 13 4 3 11 12 3 5 6 7 9 10 9 7 10 15 15 14 14 13 15 17 18
12 12 12 12 12 12 13 14 14 16 17 16 16 16 15 15 15 14 9 3 3 3 2 3 3 3 2 2 5 4 1 1 4 6 9 10 8 5 2 2 1 1 2 1 1 4 4 3 2 1 2 2 3 4 1 2 6 2 2 2 5 7 8 11 14 15 12 5 6 11 11 3 3 3 7 7 6 7 9 12 16 16 14 15 16 17 19 20
12 12 11 11 11 11 12 13 13 15 16 15 15 15 14 14 15 13 7 1 2 0 2 3 2 3 3 2 4 4 2 1 4 5 6 8 8 4 1 1 1 1 2 1 2 3 1 2 1 1 1 2 3 4 1 1 5 4 1 2 4 6 9 13 13 10 9 9 5 8 6 8 5 2 9 8 6 6 8 10 13 15 15 16 18 20 23 25
11 11 11 10 10 10 11 12 12 14 14 13 14 14 12 12 13 11 5 1 2 1 1 2 2 2 3 3 3 2 2 1 2 2 4 6 7 4 3 1 1 1 2 1 3 1 2 1 1 2 2 2 4 4 1 1 4 2 1 2 5 7 10 12 11 7 7 10 6 2 5 9 7 1 9 8 5 5 8 11 13 16 18 19 21 23 28 31
11 11 11 10 9 9 10 10 12 14 13 12 13 12 10 11 11 7 3 2 1 2 1 1 1 2 2 4 2 1 1 2 2 1 2 5 5 1 2 2 2 1 3 3 4 1 2 1 1 2 2 2 3 2 1 2 2 1 2 3 5 6 10 10 9 9 7 6 6 4 5 6 6 2 5 6 4 6 10 12 13 16 19 21 23 28 33 34
11 11 10 9 8 8 9 9 11 12 11 11 11 9 9 10 7 2 0 2 0 2 2 1 2 2 3 4 2 2 0 0 1 2 2 2 2 1 2 1 2 2 2 3 4 0 1 1 0 0 2 2 1 2 2 2 1 2 2 4 5 6 8 7 6 8 6 5 8 5 2 4 6 4 2 2 4 6 9 10 11 14 18 21 27 32 34 35
11 11 9 8 8 8 9 10 11 12 11 10 8 7 8 7 3 0 2 2 0 1 1 1 2 3 5 3 3 1 1 1 2 3 2 0 1 2 1 2 2 2 2 1 3 1 1 1 2 1 2 0 4 3 2 3 1 4 3 3 5 6 6 6 5 4 4 4 5 2 3 2 6 3 1 1 4 5 8 9 11 15 20 26 31 33 34 34
12 11 10 8 8 8 9 10 11 12 11 8 6 6 5 3 0 2 3 0 1 0 1 0 0 2 2 1 2 0 1 1 2 2 1 1 1 3 1 2 2 2 2 2 3 1 1 2 2 1 2 1 3 2 2 1 3 3 2 5 7 5 4 5 4 1 2 3 3 6 3 3 7 3 3 5 4 5 7 10 12 16 23 29 32 34 34 33
13 12 10 9 8 8 9 10 11 11 10 6 4 4 3 1 1 4 2 1 1 1 1 1 0 1 3 1 3 1 0 1 1 2 1 1 1 1 1 2 1 2 3 2 1 2 1 3 1 2 1 1 2 3 3 3 1 2 4 5 5 5 4 4 4 2 6 4 6 5 4 5 10 8 3 7 5 6 8 11 14 17 23 28 31 32 31 31
14 13 11 10 9 8 9 10 11 10 9 4 1 2 2 1 3 3 1 1 0 1 1 1 0 1 1 2 3 2 0 2 2 2 2 1 1 1 2 2 1 3 3 1 1 2 1 2 0 2 1 1 2 2 2 1 3 4 3 2 2 4 6 6 6 5 6 4 4 2 3 5 10 6 6 6 5 7 11 14 14 16 21 26 28 30 29 31
15 14 13 11 9 9 9 10 10 9 6 2 0 1 1 3 3 0 1 3 1 2 2 2 1 0 2 3 2 1 2 2 3 1 1 2 2 3 3 3 2 1 0 1 1 1 3 2 2 2 1 1 1 2 2 1 3 4 3 1 2 1 4 6 5 5 7 9 6 4 3 4 5 1 9 6 2 8 15 16 13 16 22 27 29 29 29 32
15 15 15 12 10 10 9 10 10 8 6 2 2 2 3 5 3 1 2 2 1 1 1 2 1 2 4 4 0 1 4 2 2 1 3 3 4 3 2 3 4 2 2 2 1 1 4 4 2 2 1 2 2 1 1 1 2 3 2 2 3 1 4 6 3 2 5 11 9 4 4 4 1 6 9 3 6 13 18 16 16 21 27 29 29 29 30 33
15 15 15 13 11 11 11 11 9 7 6 5 2 5 6 4 2 2 2 1 1 1 1 2 3 3 4 3 1 1 3 2 0 1 3 3 3 3 2 2 2 3 2 1 1 2 3 2 3 2 2 5 2 1 2 2 0 2 2 2 0 2 2 5 3 0 2 8 7 4 6 7 2 6 7 2 10 15 15 16 21 27 30 31 32 32 34 36
16 16 16 14 12 12 12 11 9 8 8 6 4 7 4 3 4 4 3 3 2 2 0 3 2 3 4 2 2 3 3 2 2 1 2 2 2 4 5 2 2 3 2 2 1 1 2 2 3 3 3 5 3 6 7 5 3 1 2 1 2 3 2 1 2 2 4 8 6 6 10 10 6 2 2 5 13 15 15 18 24 30 33 34 35 36 37 40
17 17 17 15 14 15 14 13 11 10 8 6 7 8 3 3 6 6 6 6 3 3 2 4 3 3 4 4 2 4 4 2 3 2 2 3 2 5 7 4 4 4 2 2 1 1 1 3 3 2 3 5 3 4 5 4 5 2 2 2 1 3 3 3 1 3 6 8 7 8 11 9 7 3 2 8 14 15 17 20 23 28 32 35 37 38 40 43
17 16 15 15 16 16 16 15 13 11 8 5 7 7 3 4 7 9 10 7 3 3 3 5 6 3 3 3 2 3 5 4 3 2 3 3 2 4 7 4 5 5 2 2 2 0 1 2 1 2 3 3 2 3 3 3 3 2 0 1 1 2 2 2 1 1 5 7 7 8 10 6 2 1 4 11 13 13 18 21 21 26 32 35 37 39 41 44
16 10 9 11 12 12 13 13 12 11 6 4 7 5 1 3 6 11 16 11 5 4 4 3 6 6 4 4 3 2 4 4 3 3 3 3 1 3 6 5 5 6 3 3 2 0 2 2 2 3 2 2 3 2 3 4 4 3 4 4 3 1 2 2 1 2 3 6 6 7 10 6 2 3 6 11 11 12 18 20 21 27 34 36 37 41 44 45
14 6 7 12 11 11 12 11 9 7 3 2 4 3 2 4 5 10 17 17 10 8 6 3 5 6 4 3 4 3 3 3 5 5 4 5 4 3 6 8 9 9 5 3 3 2 2 2 2 4 4 5 2 2 2 3 4 5 6 5 4 4 3 3 4 3 2 4 4 5 11 10 2 1 5 6 7 13 20 23 23 29 35 37 39 43 46 47
12 6 8 13 14 14 14 9 5 4 3 3 4 4 5 6 5 8 13 14 10 7 5 3 4 4 4 5 3 3 3 3 5 5 5 6 4 2 7 12 13 12 6 2 2 2 2 1 3 4 4 2 2 4 3 4 5 4 4 4 4 4 4 3 5 2 1 4 4 5 11 9 1 2 2 4 11 19 24 26 27 31 35 38 42 44 46 47
11 10 11 12 16 19 15 6 3 3 3 4 6 7 8 6 5 6 9 9 7 5 4 4 4 6 6 5 3 4 4 4 6 7 4 4 2 2 10 16 14 10 5 1 2 4 3 2 3 4 2 3 3 3 3 1 4 5 3 5 5 4 4 3 5 3 3 5 5 6 10 7 3 5 2 11 19 23 25 28 29 31 35 39 43 45 46 48
11 12 12 12 17 21 15 6 4 6 5 5 5 5 6 6 7 8 7 9 9 6 3 4 6 8 7 3 4 6 7 5 6 6 4 2 2 5 11 15 12 7 3 1 3 6 4 2 3 2 3 2 2 2 3 1 3 4 4 7 7 5 4 2 4 3 4 8 9 7 9 8 3 1 10 16 19 22 25 29 30 31 36 41 43 45 46 49
8 9 10 14 22 24 16 10 8 7 8 8 8 8 7 5 10 16 15 14 14 10 5 3 5 7 4 3 2 5 7 7 6 3 2 2 2 4 8 11 9 5 2 1 4 6 4 2 3 3 6 6 5 2 3 4 5 5 5 8 9 8 8 5 4 5 6 7 9 9 9 11 10 12 17 17 17 21 25 29 32 34 39 42 42 45 48 50
7 5 5 9 19 25 21 17 13 9 8 9 9 9 11 8 7 16 20 15 15 15 9 3 5 5 3 4 5 6 7 6 4 1 2 4 3 2 6 8 6 4 2 2 5 5 1 2 5 8 10 9 8 4 4 5 5 6 7 9 10 10 11 8 4 6 7 5 8 12 13 15 18 18 17 18 19 20 22 28 34 36 39 42 42 45 48 49
7 4 6 7 10 17 18 16 16 12 8 9 6 4 12 13 7 9 14 13 13 16 9 3 6 7 6 8 8 6 6 6 4 3 3 4 3 2 5 6 5 5 3 4 7 5 1 3 7 11 13 11 9 6 2 3 7 9 9 10 10 10 11 10 8 9 7 5 10 13 11 13 17 17 18 20 19 18 20 29 36 37 38 40 43 46 47 46
13 6 12 15 10 8 11 14 17 16 13 11 9 6 9 14 11 10 11 8 9 13 10 5 9 14 13 12 8 5 7 7 6 5 3 4 5 4 4 4 5 7 6 4 6 4 1 4 5 7 11 10 7 8 6 6 8 9 10 13 13 10 11 12 13 14 11 9 13 13 13 16 17 17 19 20 18 19 24 32 37 36 36 38 42 44 43 44
19 10 11 18 15 9 10 17 20 19 17 13 10 11 11 15 18 13 7 4 4 11 15 12 12 16 17 14 10 8 9 8 7 5 4 4 5 5 4 3 5 10 8 4 3 3 1 2 3 4 7 7 8 10 11 10 10 10 12 16 15 12 13 14 13 15 16 17 19 18 20 21 17 15 17 19 21 24 27 33 36 33 33 38 41 41 41 45
27 21 14 15 14 13 11 15 17 14 15 15 13 13 14 19 21 12 7 11 11 8 14 19 16 15 16 15 14 14 13 11 6 5 8 6 4 4 4 2 5 9 8 5 2 3 3 1 2 2 5 6 8 11 11 10 10 10 13 18 17 14 15 15 12 12 14 16 18 17 18 17 12 13 16 21 25 25 25 29 31 29 31 37 38 38 43 46
41 37 27 15 9 13 13 11 11 9 10 13 14 14 15 20 22 15 12 22 23 10 13 22 19 11 9 13 17 16 12 10 5 5 12 11 7 8 7 5 9 9 6 5 3 3 4 2 2 2 4 4 6 8 8 7 7 10 15 20 19 13 12 11 9 9 10 12 14 13 13 11 9 12 17 23 26 24 23 25 27 29 33 35 35 37 42 43
44 39 35 22 11 13 15 9 9 12 12 13 16 18 18 18 20 18 12 17 24 21 19 21 15 8 5 10 17 16 11 10 5 6 13 12 7 9 9 9 14 12 8 6 3 3 4 3 2 2 3 2 4 3 3 3 5 8 11 14 14 11 11 10 8 10 12 12 10 9 9 10 12 14 17 20 22 22 22 23 27 31 32 30 32 37 40 41
Wind_Direction
21 18 16 13 11 9 7 7 7 5 2 359 358 358 359 359 359 358 358 357 356 354 354 355 360 5 354 322 182 161 127 94 62 43 50 47 35 18 360 353 348 349 355 353 349 351 351 335 315 320 339 342 341 358 16 30 19 254 226 267 207 119 100 126 139 36 330 325 325 324 348 329 330 352 330 321 303 287 299 308 321 330 334 338 341 341 338 338
18 15 13 10 8 5 3 3 4 4 0 357 355 355 357 358 357 355 354 355 353 352 354 353 355 2 357 327 216 192 161 119 26 26 42 37 14 3 353 350 351 354 357 354 352 352 347 337 327 332 340 337 348 355 2 10 353 278 236 277 55 91 75 76 69 52 325 319 317 316 334 326 321 342 328 316 307 304 307 327 349 350 352 351 346 346 348 351
13 11 9 7 6 3 1 0 1 2 358 356 353 353 355 356 356 353 352 352 350 350 352 351 352 358 355 348 188 194 177 129 13 22 27 12 356 351 345 349 351 351 353 350 352 353 349 341 336 336 336 330 341 346 12 360 349 218 250 290 69 93 41 190 230 316 311 310 307 309 321 317 320 344 321 302 305 312 342 8 5 354 354 354 347 344 347 352
7 6 4 3 2 1 1 0 0 360 357 354 352 352 353 354 354 351 350 351 348 348 350 350 351 355 356 6 55 199 186 129 27 12 360 348 348 348 346 349 349 350 353 352 355 355 348 340 335 333 329 325 340 331 341 356 2 181 244 329 78 115 293 137 203 295 293 298 296 299 304 308 325 332 306 294 309 334 14 8 2 356 355 352 344 338 341 348
3 2 1 0 1 1 1 1 0 358 357 354 352 351 350 351 352 350 350 349 346 347 349 349 349 356 7 12 36 174 184 154 15 352 344 346 349 351 347 348 354 360 3 5 5 354 344 336 330 333 330 309 331 325 105 7 346 226 224 310 99 154 319 97 120 294 302 302 292 292 299 312 315 310 294 293 303 344 2 358 1 1 356 349 344 344 345 349
359 358 358 358 360 1 2 1 360 359 357 355 353 351 349 349 350 349 349 347 345 346 349 350 349 0 27 31 57 146 168 108 16 351 356 353 350 352 350 357 7 13 14 11 3 347 339 336 334 343 333 217 323 351 10 354 317 274 203 243 185 175 284 76 166 285 297 292 285 290 302 309 301 300 311 293 286 322 352 3 5 0 352 348 352 357 358 5
355 355 355 356 359 1 2 0 359 359 357 356 354 350 347 348 350 348 347 346 345 346 348 351 350 1 49 59 80 118 108 80 39 4 359 353 355 358 2 13 17 17 15 8 1 352 349 349 356 360 292 217 134 348 321 299 258 255 246 267 176 164 235 264 259 285 279 267 275 289 296 293 291 309 310 301 311 344 7 9 3 354 352 359 8 9 13 22
352 352 352 353 357 360 1 359 358 358 357 357 355 351 347 348 350 347 347 346 345 346 348 351 350 349 86 87 92 89 69 53 17 359 352 356 7 14 22 23 18 15 13 13 18 15 7 359 1 354 310 59 344 272 307 295 216 213 275 322 298 176 217 269 280 276 257 261 273 282 293 296 330 322 286 313 25 33 12 5 3 2 11 23 27 29 31 31
349 350 350 350 354 358 359 357 357 356 357 358 357 353 348 348 349 346 348 347 346 346 347 352 350 327 207 172 105 69 47 31 17 9 1 10 27 40 35 23 16 15 17 25 30 23 11 2 358 345 316 329 297 271 289 293 193 212 289 313 300 298 297 283 267 240 219 257 263 286 302 312 17 320 237 82 47 22 4 12 24 29 39 43 44 42 39 37
346 347 348 347 350 355 356 354 356 356 357 359 358 355 349 349 347 346 348 347 346 345 346 352 350 341 280 255 130 78 52 38 29 24 23 38 55 48 29 18 15 16 24 32 30 21 11 8 359 343 301 271 279 266 244 272 320 305 301 304 293 290 295 257 175 155 141 154 150 315 313 318 335 303 125 76 34 6 2 32 44 48 56 49 48 45 40 38
343 347 346 345 347 351 352 351 353 355 356 358 360 357 351 349 347 347 348 346 345 342 346 352 350 52 57 110 101 86 66 52 41 38 41 62 62 36 18 14 14 15 26 33 30 19 11 16 7 359 322 283 290 260 224 260 309 312 312 305 290 278 204 162 132 87 111 124 145 260 305 317 314 315 76 41 15 357 5 54 56 57 58 47 46 42 39 36
341 345 344 343 345 347 348 348 350 354 355 357 360 358 353 349 348 349 346 345 344 341 346 353 349 105 78 86 90 87 81 66 56 56 52 58 32 8 8 11 11 14 24 32 31 20 11 20 17 15 353 307 313 298 245 288 310 304 322 305 301 308 161 151 92 42 115 110 132 238 296 312 278 73 56 22 3 348 17 69 63 59 53 45 45 40 38 32
339 343 343 342 344 345 345 345 348 352 353 355 357 357 354 349 349 349 346 345 344 341 347 356 346 168 83 77 91 93 88 74 62 58 47 46 29 5 9 10 10 14 23 33 31 19 10 20 28 26 16 345 310 309 297 301 302 281 295 253 313 336 174 142 82 24 66 105 64 322 318 318 308 33 56 12 351 347 55 76 64 58 52 45 44 39 37 30
335 339 340 340 343 343 341 342 346 350 352 353 353 355 354 348 348 349 344 345 344 342 346 1 39 170 105 98 110 104 96 82 63 50 42 45 36 15 13 13 11 11 22 35 31 20 8 12 34 39 29 11 328 293 284 277 268 287 228 182 353 352 312 13 58 32 53 81 14 351 325 315 316 348 35 355 342 13 77 81 67 59 53 47 43 37 34 29
331 336 337 337 341 341 339 341 344 348 350 351 349 352 352 345 347 347 340 343 345 342 346 6 87 160 115 108 121 119 119 92 51 36 36 38 35 23 13 12 11 9 20 31 29 21 6 2 38 34 357 357 347 304 271 203 148 326 334 300 8 358 307 337 52 69 47 10 355 356 331 319 305 317 349 342 359 76 87 82 69 61 55 48 43 37 33 26
327 332 333 335 340 340 339 339 342 345 347 348 347 350 349 343 345 344 334 340 345 342 347 24 76 163 120 106 140 133 159 141 43 27 27 31 34 31 16 11 8 7 17 29 28 19 4 4 73 54 15 355 348 326 306 282 191 52 22 328 329 328 311 326 78 92 32 356 356 22 336 311 293 310 329 337 65 95 92 82 70 62 55 49 44 38 33 25
324 329 330 332 338 340 339 339 341 342 343 344 343 345 346 343 344 340 331 342 346 343 346 45 35 199 131 120 175 144 190 181 58 24 20 25 26 26 20 12 7 7 13 23 20 15 6 2 257 28 63 36 350 341 330 316 320 347 357 324 306 307 305 313 316 73 19 351 319 302 230 296 296 312 325 349 93 100 93 82 70 61 53 48 44 37 32 26
322 326 327 330 336 339 339 340 340 339 342 343 340 343 344 342 344 341 336 343 347 349 348 17 358 264 141 88 165 308 199 180 96 13 11 18 19 19 19 15 12 9 7 350 5 10 5 351 243 288 310 19 13 12 346 325 322 312 319 318 303 298 288 297 305 1 6 342 316 314 359 320 302 311 338 46 97 98 90 82 69 58 51 45 40 35 31 25
319 323 325 329 332 337 339 340 341 340 341 341 340 344 343 342 348 348 342 347 354 3 341 315 326 271 210 43 31 328 189 190 238 349 1 12 12 8 12 11 8 6 4 330 349 6 360 336 243 305 345 354 360 2 319 314 311 298 305 299 294 303 287 289 302 345 0 336 324 334 338 330 309 320 10 82 97 92 87 77 62 54 47 41 38 32 26 21
315 319 323 327 330 334 338 340 343 342 342 344 345 349 352 352 356 338 340 348 353 347 322 293 289 269 271 73 40 30 180 206 238 356 359 6 9 7 6 3 353 2 21 330 324 360 358 337 309 334 351 341 329 303 289 300 295 285 296 285 290 302 293 298 304 345 9 339 325 333 332 337 318 331 52 101 94 84 78 65 56 48 42 40 36 28 21 16
311 315 321 326 328 332 337 341 343 344 346 348 350 358 8 5 4 323 337 342 334 331 324 275 251 255 232 130 35 49 188 223 231 351 359 4 10 7 358 7 355 349 23 277 283 330 343 328 52 36 358 338 316 281 272 282 275 273 294 298 298 303 305 305 293 343 11 343 320 326 332 346 323 335 82 104 89 83 72 61 55 42 41 37 28 21 13 8
306 311 318 323 326 330 337 341 343 347 348 347 353 4 9 5 358 336 334 319 316 325 314 244 223 209 185 164 21 35 194 229 229 339 3 8 12 14 0 21 33 334 357 312 290 322 332 330 89 62 74 94 112 188 249 273 279 285 305 302 302 322 321 306 233 13 356 328 316 326 329 328 325 23 93 98 93 96 81 70 59 42 38 28 21 16 6 1
301 307 314 319 323 328 336 340 343 346 346 347 355 2 358 353 349 341 336 298 304 319 207 232 207 187 142 170 357 7 207 257 265 339 6 17 28 37 33 39 49 293 343 347 358 335 314 350 80 89 147 168 192 164 240 280 276 287 323 306 308 343 340 317 302 334 322 285 303 321 315 304 331 91 95 99 107 112 100 75 53 41 36 22 15 6 357 355
297 304 309 316 320 326 335 339 342 343 345 350 353 353 349 346 344 341 339 297 284 299 239 203 202 232 203 146 349 2 80 359 343 352 10 24 39 41 45 68 51 207 156 42 83 251 281 338 57 108 133 204 297 278 264 310 301 310 25 330 321 337 328 304 309 321 316 282 330 334 319 286 127 109 113 118 116 110 82 46 33 32 29 17 10 1 354 349
293 298 304 313 317 326 335 337 341 342 343 348 347 346 344 341 342 343 342 295 261 291 223 201 217 232 227 309 347 353 272 278 1 6 18 27 35 29 43 93 308 259 144 122 238 259 272 355 36 120 95 41 326 312 2 338 303 310 85 28 325 317 313 310 317 328 322 306 51 14 332 283 100 96 142 133 107 85 51 31 24 21 18 10 4 359 353 347
287 295 301 308 314 326 333 335 339 339 340 344 343 342 340 337 340 344 347 301 230 348 149 192 214 206 218 297 349 344 269 221 352 11 35 28 24 9 306 124 11 339 147 178 287 280 267 42 34 96 57 39 348 308 325 118 292 301 75 4 316 305 311 315 320 330 311 301 13 31 309 274 313 75 138 128 100 82 41 28 23 15 12 7 360 356 353 351
282 291 295 303 314 323 330 333 333 333 336 341 340 337 335 334 338 344 348 272 212 138 143 182 185 195 230 314 350 331 291 305 335 27 53 14 8 355 285 237 172 164 135 203 279 247 153 148 65 60 46 1 310 298 56 115 277 291 78 319 307 310 312 313 314 303 286 303 316 181 226 269 299 154 143 133 107 68 29 18 14 10 8 3 1 359 356 354
276 284 290 300 311 319 327 329 325 327 331 335 336 335 333 329 332 343 338 283 202 126 152 172 172 201 280 328 322 200 311 334 306 321 30 357 360 352 265 260 211 166 126 217 270 353 118 161 67 26 348 294 287 328 63 185 227 33 40 276 280 296 298 299 299 288 293 320 304 226 208 264 280 205 140 123 90 23 13 9 5 6 3 360 359 357 354 353
269 275 283 293 304 314 322 321 321 322 324 329 331 329 328 324 326 9 357 275 185 129 151 159 182 236 330 321 251 200 156 276 285 328 1 346 346 298 240 177 137 131 127 224 259 7 66 324 70 183 269 260 116 76 68 132 130 343 305 257 259 273 281 279 278 292 310 298 282 276 208 263 280 274 275 108 88 18 359 359 3 2 359 358 356 353 351 348
260 266 274 283 297 308 314 318 318 316 318 324 326 331 329 320 313 254 248 259 49 143 181 192 210 304 334 307 244 210 134 246 306 332 3 149 3 36 170 157 134 149 132 222 251 261 20 298 205 191 296 39 114 113 84 81 356 291 284 298 300 292 284 273 274 303 307 266 258 206 121 325 299 274 263 99 85 30 358 353 357 358 358 357 352 348 345 342
253 257 262 272 286 301 312 315 311 309 314 319 328 338 328 318 112 236 246 241 41 167 174 146 333 343 22 26 259 283 108 302 323 331 2 68 26 47 106 183 161 190 207 192 211 275 42 172 174 42 6 94 134 152 144 150 271 280 359 358 332 306 272 259 264 224 251 264 177 161 112 331 277 262 108 112 81 30 6 358 356 358 357 352 346 341 339 336
249 251 254 265 277 294 306 307 305 305 308 316 345 351 332 311 230 226 228 16 333 228 142 105 15 43 77 100 250 249 49 265 46 57 64 56 358 38 309 259 214 266 260 185 169 310 192 143 33 346 43 114 192 187 175 186 287 21 39 13 332 314 314 282 277 250 257 254 158 150 12 312 266 274 156 132 76 23 8 6 3 359 352 344 339 334 332 331
248 247 249 257 271 288 298 301 302 300 299 307 8 36 42 278 251 218 212 294 316 58 57 101 86 88 89 281 252 159 190 235 143 92 116 151 242 221 265 275 265 280 276 154 11 291 210 124 278 237 141 87 226 213 216 198 47 43 46 26 331 330 327 300 297 299 283 264 169 151 344 276 268 270 166 139 57 14 8 9 4 354 342 335 332 327 327 328
248 246 248 253 267 279 288 296 297 290 285 284 207 76 88 239 249 149 226 252 295 34 72 105 68 140 204 254 276 181 236 240 112 107 171 170 219 216 213 228 233 274 258 201 265 239 243 247 188 195 175 103 108 31 359 63 75 72 92 175 258 291 284 283 307 312 303 305 283 238 208 243 289 151 150 148 27 6 5 2 352 340 334 330 327 324 325 325
250 248 248 253 263 272 281 284 284 280 262 214 156 204 225 237 242 220 233 251 313 307 114 143 186 280 244 225 265 224 233 236 91 164 209 190 221 221 180 190 204 209 167 196 210 155 244 259 74 50 359 62 87 55 24 94 119 107 125 228 249 205 241 268 304 293 292 302 292 239 207 253 272 139 146 151 352 1 358 347 336 333 330 329 326 324 326 324
254 255 255 257 261 267 275 273 271 267 234 178 162 224 226 235 216 188 198 135 125 154 350 275 210 254 273 225 178 174 196 218 83 212 214 206 230 215 152 140 182 220 228 207 178 167 245 254 95 102 48 46 32 123 52 345 55 143 186 239 134 102 240 270 285 140 244 276 279 266 273 286 262 156 143 39 352 351 346 337 333 331 330 330 327 328 328 326
259 261 262 260 258 261 265 264 259 247 212 177 213 236 225 230 214 192 166 144 129 121 38 297 218 214 268 260 204 177 170 219 208 196 218 212 220 169 152 159 179 204 274 293 225 172 275 254 161 165 103 76 82 97 77 16 356 188 236 341 98 140 159 212 279 311 283 273 274 280 284 291 294 248 134 10 347 342 337 335 333 332 333 330 327 329 329 327
264 268 268 260 254 255 255 256 249 224 194 179 233 244 222 201 207 189 163 152 135 126 175 247 226 188 240 260 231 165 165 194 170 179 231 212 206 149 145 168 189 194 265 292 245 93 320 258 192 157 108 120 132 104 91 42 18 1 299 32 103 231 190 147 187 299 292 284 280 289 295 290 281 282 20 347 341 339 334 334 332 332 333 329 327 329 328 325
267 271 271 257 248 249 248 249 233 203 189 200 234 240 212 203 213 197 184 169 133 144 194 232 228 213 207 213 222 166 182 202 173 177 223 211 205 147 143 159 179 186 196 185 207 149 182 254 225 132 112 130 184 227 193 146 76 54 122 148 232 287 225 179 124 276 272 277 280 299 309 296 245 111 354 336 340 338 331 332 331 329 328 326 326 326 325 324
265 265 259 238 234 242 238 230 207 186 196 221 224 225 169 207 222 206 204 201 179 192 219 219 209 227 229 206 236 220 199 218 201 194 213 209 223 162 156 160 158 158 151 150 200 197 159 225 229 144 137 201 199 201 198 164 145 170 190 188 198 163 152 218 232 176 235 268 272 289 293 280 146 70 338 328 337 334 328 328 325 324 324 323 324 325 323 322
254 247 240 221 223 236 220 199 185 186 216 242 226 235 196 202 207 202 208 211 211 216 226 211 204 226 238 228 236 199 189 226 201 207 232 206 221 220 172 165 155 151 144 148 190 203 173 203 206 171 194 222 199 43 342 225 195 217 217 195 186 166 152 260 255 175 165 243 242 266 280 279 267 322 310 315 329 328 325 323 320 322 323 323 324 324 322 321
235 231 245 222 218 221 204 186 189 201 217 225 219 221 208 197 190 193 198 204 218 230 225 222 219 221 224 232 234 169 180 227 189 198 240 209 212 251 166 162 155 152 151 135 157 143 100 132 219 222 214 198 37 19 332 240 199 203 216 178 163 160 161 223 258 250 218 225 214 246 270 279 247 167 257 330 329 323 321 321 321 322 323 322 322 322 321 322
219 229 243 223 208 201 192 190 216 208 228 241 236 225 207 193 179 185 186 190 207 217 214 216 199 210 222 215 204 179 184 218 195 189 217 212 199 157 162 161 153 149 154 135 146 140 114 125 208 234 216 101 73 60 59 66 157 161 175 175 180 186 177 217 259 277 282 246 220 236 259 263 132 124 336 329 323 317 317 321 323 322 322 320 320 321 322 323
227 233 229 216 202 192 192 213 216 219 233 232 242 231 210 213 203 186 180 189 192 180 192 216 197 212 225 189 185 196 183 203 214 194 185 181 156 148 159 163 159 161 173 155 160 163 164 166 162 225 263 185 149 140 123 145 206 200 202 189 194 199 170 202 247 245 260 239 218 224 256 255 199 12 323 320 317 315 318 322 323 323 321 319 320 323 323 323
230 230 215 206 199 195 207 219 212 240 237 219 237 230 211 229 215 206 211 209 199 187 184 215 194 192 191 149 197 208 193 215 235 201 147 139 135 144 160 168 170 171 165 115 150 160 181 215 171 219 261 244 249 257 156 179 203 205 206 197 200 200 183 186 212 217 236 234 215 222 250 267 282 304 309 312 316 319 320 322 324 324 322 320 322 325 326 323
202 204 197 186 196 209 225 224 217 242 237 218 244 232 210 225 221 212 219 219 208 200 198 204 173 159 151 175 213 221 203 216 232 178 156 149 141 183 179 178 185 187 167 156 163 153 135 245 215 229 243 248 268 291 100 132 209 225 219 208 200 193 194 198 193 210 235 259 251 246 252 271 286 296 305 313 320 321 321 322 324 325 322 323 325 325 322 320
201 186 183 169 199 220 231 230 223 234 235 214 225 213 208 221 229 209 208 211 209 202 203 223 181 180 194 189 207 227 191 187 205 188 173 152 128 140 177 183 210 213 186 165 171 157 118 224 222 232 241 254 277 289 119 157 243 249 246 241 224 197 185 188 200 222 242 269 263 259 262 271 282 295 305 313 319 322 322 321 323 324 322 323 325 322 319 320
214 210 197 196 211 221 221 221 214 221 234 225 219 228 218 217 219 209 196 202 212 196 195 229 207 203 207 189 189 215 179 188 221 197 145 143 136 124 159 188 219 203 182 172 179 167 196 240 217 225 245 254 271 281 269 252 259 253 251 258 251 222 195 192 209 226 231 240 252 268 284 282 285 296 302 310 319 321 320 318 317 320 321 322 321 320 320 325
214 223 203 200 217 235 219 206 196 206 224 223 223 234 226 222 224 214 171 149 223 204 203 223 219 207 209 197 189 205 188 187 215 196 150 153 156 150 166 189 195 186 175 167 184 176 184 239 206 220 259 258 248 262 264 255 256 251 251 259 257 246 233 223 227 230 231 243 251 264 278 278 282 294 297 306 315 315 315 314 315 318 321 322 322 322 324 327
214 217 203 192 221 242 223 195 184 199 219 217 226 233 224 229 230 216 176 191 211 201 201 222 226 204 203 204 202 216 210 192 195 174 155 155 155 169 185 166 153 166 171 165 180 215 206 164 121 181 271 258 229 242 255 251 249 250 258 262 257 253 252 246 242 232 232 248 255 263 274 273 281 299 302 307 311 313 314 312 314 319 321 321 324 326 327 327
223 225 218 200 222 233 215 195 185 205 226 215 221 230 225 229 228 219 215 217 219 209 191 211 221 200 191 207 212 223 217 189 162 145 167 180 186 184 189 164 147 154 170 174 171 200 211 203 94 139 267 257 196 217 246 255 254 251 258 262 256 246 246 245 232 213 221 248 263 270 273 276 298 310 308 310 311 314 317 314 315 319 319 322 326 327 325 324
221 225 221 211 225 230 215 202 191 211 232 219 213 223 227 231 224 216 226 226 222 225 216 207 201 176 173 210 215 218 202 171 144 141 171 184 176 170 175 164 159 158 159 165 167 172 186 192 142 172 263 275 140 170 234 255 262 252 248 252 245 232 237 243 232 215 221 240 261 269 270 285 308 314 312 313 313 317 321 318 316 315 313 319 327 326 323 321